CW5019 Weather Reports


Display with metric or nautical units.
time (UTC)temp
F
wind
direction
speed
MPH
gust
MPH
rain 1hr
in
rain 24hr
in
rain mn
in
humidity
%
barometer
mb
20260505153157 76 58 1.0 1.0 0.00 0.00 0.00 87 1008.4
20260505152654 76 4 1.0 2.0 0.00 0.00 0.00 87 1008.2
20260505152150 76 50 1.0 1.0 0.00 0.00 0.00 86 1008.2
20260505151645 76 327 2.0 2.0 0.00 0.00 0.00 86 1008.3
20260505151143 76 334 0.0 1.0 0.00 0.00 0.00 87 1008.2
20260505150639 76 330 1.0 2.0 0.00 0.00 0.00 87 1008.1
20260505150136 76 21 1.0 2.0 0.00 0.00 0.00 87 1008.1
20260505140605 74 56 1.0 2.0 0.00 0.00 0.00 90 1007.8
20260505125018 72 354 0.0 0.0 0.00 0.00 0.00 92 1007.9
20260505124515 72 342 0.0 0.0 0.00 0.00 0.00 92 1007.4
20260505124011 72 350 1.0 2.0 0.00 0.00 0.00 92 1007.2
20260505123508 71 70 1.0 2.0 0.00 0.00 0.00 92 1007.3
20260505123004 71 6 0.0 0.0 0.00 0.00 0.00 92 1007.4
20260505122501 71 352 0.0 0.0 0.00 0.00 0.00 93 1007.7
20260505121958 71 341 0.0 0.0 0.00 0.00 0.00 92 1007.5
20260505121455 71 301 0.0 0.0 0.00 0.00 0.00 93 1007.6
20260505120950 71 8 1.0 1.0 0.00 0.00 0.00 93 1007.5
20260505120447 71 37 2.0 2.0 0.00 0.00 0.00 92 1007.6
20260505115946 71 15 1.0 2.0 0.00 0.00 0.00 93 1007.6
20260505115443 71 316 1.0 2.0 0.00 0.00 0.00 93 1007.4
20260505114941 71 325 1.0 1.0 0.00 0.00 0.00 93 1007.2
20260505114437 71 1 0.0 1.0 0.00 0.00 0.00 93 1007.1
20260505113934 71 347 1.0 2.0 0.00 0.00 0.00 93 1007.0
20260505113430 70 356 0.0 0.0 0.00 0.00 0.00 93 1007.5
20260505112926 70 38 0.0 1.0 0.00 0.00 0.00 93 1007.6
20260505112424 70 359 1.0 1.0 0.00 0.00 0.00 93 1007.5
20260505111920 71 1 0.0 0.0 0.00 0.00 0.00 93 1007.3
20260505111414 71 349 0.0 0.0 0.00 0.00 0.00 92 1007.4
20260505110911 71 336 0.0 0.0 0.00 0.00 0.00 92 1007.3
20260505110408 71 343 1.0 2.0 0.00 0.00 0.00 92 1007.4
20260505101839 71 13 1.0 2.0 0.00 0.00 0.00 91 1007.3
20260505101334 70 1 0.0 1.0 0.00 0.00 0.00 91 1007.3
20260505100830 70 3 0.0 0.0 0.00 0.00 0.00 91 1007.5
20260505100327 70 359 0.0 0.0 0.00 0.00 0.00 91 1007.4
20260505095822 70 2 0.0 0.0 0.00 0.00 0.00 91 1007.5
20260505095320 70 2 0.0 0.0 0.00 0.00 0.00 91 1007.6
20260505094816 70 4 1.0 1.0 0.00 0.00 0.00 91 1007.6
20260505094313 70 338 0.0 0.0 0.00 0.00 0.00 91 1007.5
20260505093808 70 356 0.0 0.0 0.00 0.00 0.00 91 1007.5
20260505093306 70 1 0.0 0.0 0.00 0.00 0.00 91 1007.4
20260505092803 70 5 0.0 0.0 0.00 0.00 0.00 91 1007.7
20260505092304 70 0 0.0 0.0 0.00 0.00 0.00 91 1007.6
20260505091758 70 3 0.0 0.0 0.00 0.00 0.00 91 1007.9
20260505091256 70 350 0.0 0.0 0.00 0.00 0.00 91 1007.9
20260505090754 70 353 1.0 1.0 0.00 0.00 0.00 91 1007.7
20260505090252 70 356 0.0 0.0 0.00 0.00 0.00 91 1007.6
20260505085749 70 343 0.0 0.0 0.00 0.00 0.00 91 1007.6
20260505085247 70 356 0.0 1.0 0.00 0.00 0.00 90 1007.7
20260505084744 70 351 0.0 0.0 0.00 0.00 0.00 90 1007.8
20260505084243 70 350 0.0 0.0 0.00 0.00 0.00 90 1007.7
20260505083739 70 356 0.0 0.0 0.00 0.00 0.00 90 1007.6
20260505083236 70 347 0.0 1.0 0.00 0.00 0.00 90 1007.9
20260505082732 70 356 0.0 0.0 0.00 0.00 0.00 90 1008.0
20260505082230 70 352 0.0 0.0 0.00 0.00 0.00 89 1008.0
20260505081725 70 345 0.0 0.0 0.00 0.00 0.00 89 1008.0
20260505081223 70 5 1.0 1.0 0.00 0.00 0.00 89 1008.1
20260505080720 70 344 0.0 0.0 0.00 0.00 0.00 89 1008.0
20260505080215 70 3 0.0 0.0 0.00 0.00 0.00 89 1008.2
20260505075711 70 2 0.0 0.0 0.00 0.00 0.00 89 1008.4
20260505075209 70 0 0.0 0.0 0.00 0.00 0.00 89 1008.3
20260505074706 70 1 0.0 0.0 0.00 0.00 0.00 89 1008.3
20260505074203 70 41 0.0 1.0 0.00 0.00 0.00 88 1008.2
20260505073700 70 356 0.0 0.0 0.00 0.00 0.00 88 1008.2
20260505073158 70 357 0.0 0.0 0.00 0.00 0.00 88 1008.3
20260505072654 70 357 0.0 0.0 0.00 0.00 0.00 88 1008.2
20260505072150 70 355 0.0 0.0 0.00 0.00 0.00 88 1008.5
20260505071646 70 331 0.0 0.0 0.00 0.00 0.00 88 1008.8
20260505071144 70 341 0.0 0.0 0.00 0.00 0.00 88 1008.5
20260505070641 70 2 0.0 0.0 0.00 0.00 0.00 87 1008.6
20260505070137 70 356 0.0 0.0 0.00 0.00 0.00 87 1008.6
20260505065633 70 359 0.0 0.0 0.00 0.00 0.00 87 1008.6
20260505065130 70 70 0.0 0.0 0.00 0.00 0.00 87 1008.5
20260505064627 70 351 0.0 0.0 0.00 0.00 0.00 87 1008.9
20260505064125 70 12 0.0 0.0 0.00 0.00 0.00 87 1008.6
20260505063622 70 4 1.0 1.0 0.00 0.00 0.00 87 1008.9
20260505063118 70 4 0.0 0.0 0.00 0.00 0.00 87 1008.8
20260505062615 70 348 0.0 0.0 0.00 0.00 0.00 87 1009.1
20260505062112 70 336 0.0 2.0 0.00 0.00 0.00 86 1009.0
20260505061609 70 354 0.0 0.0 0.00 0.00 0.00 86 1008.9
20260505061107 70 352 0.0 0.0 0.00 0.00 0.00 86 1009.1
20260505060604 70 355 0.0 0.0 0.00 0.00 0.00 86 1009.1
20260505055556 70 348 2.0 2.0 0.00 0.00 0.00 85 1009.0
20260505055053 70 339 1.0 1.0 0.00 0.00 0.00 85 1008.9
20260505054550 70 41 0.0 1.0 0.00 0.00 0.00 85 1009.1
20260505054049 70 352 0.0 0.0 0.00 0.00 0.00 85 1009.1
20260505053545 70 56 0.0 0.0 0.00 0.00 0.00 85 1009.2
20260505053042 71 44 0.0 0.0 0.00 0.00 0.00 84 1009.4
20260505052539 71 14 0.0 0.0 0.00 0.00 0.00 84 1009.4
20260505052037 71 51 0.0 0.0 0.00 0.00 0.00 84 1009.5
20260505051533 71 37 0.0 0.0 0.00 0.00 0.00 84 1009.4
20260505051031 71 40 0.0 0.0 0.00 0.00 0.00 83 1009.4
20260505050529 71 39 0.0 0.0 0.00 0.00 0.00 83 1009.5
20260505041457 72 15 1.0 1.0 0.00 0.00 0.00 80 1009.3
20260505040954 72 25 2.0 2.0 0.00 0.00 0.00 80 1009.4
20260505040451 72 27 1.0 1.0 0.00 0.00 0.00 80 1009.5
20260505035948 72 320 1.0 2.0 0.00 0.00 0.00 80 1009.7
20260505035444 72 3 1.0 1.0 0.00 0.00 0.00 80 1009.7
20260505034942 72 51 0.0 1.0 0.00 0.00 0.00 80 1009.6
20260505034438 72 355 0.0 0.0 0.00 0.00 0.00 80 1009.7
20260505033935 72 339 2.0 3.0 0.00 0.00 0.00 79 1009.6
20260505033432 72 334 0.0 0.0 0.00 0.00 0.00 79 1009.6
20260505032930 72 48 2.0 2.0 0.00 0.00 0.00 79 1009.7
20260505032427 73 0 0.0 0.0 0.00 0.00 0.00 79 1009.9
20260505031923 73 348 0.0 0.0 0.00 0.00 0.00 79 1009.8
20260505031420 73 347 0.0 1.0 0.00 0.00 0.00 78 1009.7
20260505030917 73 342 2.0 2.0 0.00 0.00 0.00 78 1009.7
20260505030413 73 11 1.0 1.0 0.00 0.00 0.00 78 1009.7
20260505025909 73 30 1.0 2.0 0.00 0.00 0.00 77 1009.7
20260505025406 73 52 0.0 1.0 0.00 0.00 0.00 77 1009.5
20260505024905 74 26 1.0 1.0 0.00 0.00 0.00 76 1009.5
20260505024402 74 351 0.0 0.0 0.00 0.00 0.00 76 1009.5
20260505023859 74 1 0.0 0.0 0.00 0.00 0.00 76 1009.5
20260505023356 74 5 0.0 0.0 0.00 0.00 0.00 75 1009.5
20260505022853 74 354 1.0 1.0 0.00 0.00 0.00 75 1009.3
20260505022350 74 127 2.0 2.0 0.00 0.00 0.00 75 1009.3
20260505021848 75 352 0.0 0.0 0.00 0.00 0.00 75 1009.5
20260505021344 74 357 1.0 2.0 0.00 0.00 0.00 75 1009.4
20260505020840 74 55 0.0 1.0 0.00 0.00 0.00 75 1009.5
20260505020335 74 21 0.0 0.0 0.00 0.00 0.00 76 1009.4
20260505015832 74 2 0.0 0.0 0.00 0.00 0.00 76 1009.2
20260505015330 74 331 0.0 0.0 0.00 0.00 0.00 76 1009.2
20260505014827 74 343 1.0 2.0 0.00 0.00 0.00 76 1009.2
20260505014324 74 348 0.0 0.0 0.00 0.00 0.00 76 1009.1
20260505013820 74 14 0.0 0.0 0.00 0.00 0.00 75 1009.2
20260505013318 74 14 0.0 0.0 0.00 0.00 0.00 75 1009.1
20260505012816 74 14 0.0 0.0 0.00 0.00 0.00 75 1009.1
20260505012313 74 12 0.0 0.0 0.00 0.00 0.00 74 1009.1
20260505011809 75 32 0.0 0.0 0.00 0.00 0.00 74 1008.8
20260505011306 75 352 0.0 0.0 0.00 0.00 0.00 73 1008.9
20260505010802 75 351 0.0 1.0 0.00 0.00 0.00 73 1009.1
20260505010258 75 349 0.0 0.0 0.00 0.00 0.00 73 1008.8
20260505005754 75 3 0.0 0.0 0.00 0.00 0.00 72 1009.0
20260505005252 76 7 1.0 2.0 0.00 0.00 0.00 72 1009.1
20260505004749 76 335 0.0 0.0 0.00 0.00 0.00 71 1009.1
20260505004245 76 354 0.0 0.0 0.00 0.00 0.00 71 1009.1
20260505003742 76 3 0.0 1.0 0.00 0.00 0.00 71 1009.0
20260505003240 76 334 1.0 1.0 0.00 0.00 0.00 70 1009.0
20260505002736 76 341 0.0 0.0 0.00 0.00 0.00 70 1008.9
20260505002234 77 336 0.0 0.0 0.00 0.00 0.00 70 1008.9
20260505001731 77 16 0.0 0.0 0.00 0.00 0.00 70 1009.0
20260505001228 77 351 0.0 0.0 0.00 0.00 0.00 69 1009.2
20260505000725 77 50 0.0 0.0 0.00 0.00 0.00 69 1009.1
20260505000223 77 332 0.0 0.0 0.00 0.00 0.00 69 1008.9
20260504235719 77 11 0.0 0.0 0.00 0.00 0.00 69 1009.1
20260504235215 78 336 1.0 2.0 0.00 0.00 0.00 68 1009.1
20260504234713 78 0 0.0 0.0 0.00 0.00 0.00 68 1009.1
20260504234210 78 80 0.0 1.0 0.00 0.00 0.00 68 1009.3
20260504233706 78 356 0.0 2.0 0.00 0.00 0.00 67 1009.2
20260504233202 78 344 0.0 0.0 0.00 0.00 0.00 66 1009.0
20260504232700 78 26 1.0 3.0 0.00 0.00 0.00 66 1009.1
20260504232156 79 343 0.0 0.0 0.00 0.00 0.00 66 1009.3
20260504231653 79 0 0.0 0.0 0.00 0.00 0.00 65 1009.1
20260504231149 79 27 0.0 0.0 0.00 0.00 0.00 65 1009.4
20260504230646 80 354 0.0 0.0 0.00 0.00 0.00 64 1009.5
20260504230145 80 324 1.0 2.0 0.00 0.00 0.00 64 1009.4
20260504225643 80 339 0.0 0.0 0.00 0.00 0.00 63 1009.7
20260504225138 80 4 0.0 0.0 0.00 0.00 0.00 63 1009.6
20260504224635 80 342 0.0 0.0 0.00 0.00 0.00 62 1009.5
20260504224132 80 339 0.0 0.0 0.00 0.00 0.00 62 1009.6
20260504223629 80 117 0.0 0.0 0.00 0.00 0.00 62 1009.7
20260504223125 80 337 0.0 0.0 0.00 0.00 0.00 62 1009.7
20260504222622 80 9 0.0 0.0 0.00 0.00 0.00 61 1009.8
20260504222119 80 4 0.0 1.0 0.00 0.00 0.00 62 1009.7
20260504221616 80 37 0.0 1.0 0.00 0.00 0.00 61 1010.0
20260504221113 80 356 0.0 1.0 0.00 0.00 0.00 62 1009.8
20260504220610 80 26 0.0 0.0 0.00 0.00 0.00 62 1010.0
20260504220108 80 1 0.0 0.0 0.00 0.00 0.00 61 1009.8
20260504215603 80 349 0.0 1.0 0.00 0.00 0.00 60 1009.8
20260504215101 81 349 0.0 0.0 0.00 0.00 0.00 60 1010.1
20260504214557 81 76 1.0 2.0 0.00 0.00 0.00 60 1009.9
20260504214053 82 3 0.0 0.0 0.00 0.00 0.00 59 1010.5
20260504213549 82 343 0.0 0.0 0.00 0.00 0.00 58 1010.2
20260504213047 81 339 0.0 0.0 0.00 0.00 0.00 60 1010.3
20260504212542 82 350 0.0 0.0 0.00 0.00 0.00 57 1010.5
20260504212040 82 176 0.0 0.0 0.00 0.00 0.00 58 1010.4
20260504211537 81 79 0.0 0.0 0.00 0.00 0.00 59 1010.5
20260504211034 81 89 0.0 0.0 0.00 0.00 0.00 60 1010.6
20260504210531 81 43 0.0 0.0 0.00 0.00 0.00 59 1010.7
20260504210027 81 339 0.0 0.0 0.00 0.00 0.00 59 1010.6
20260504205526 81 66 0.0 0.0 0.00 0.00 0.00 59 1010.7
20260504205023 82 353 0.0 0.0 0.00 0.00 0.00 58 1010.8
20260504204521 83 24 0.0 0.0 0.00 0.00 0.00 58 1010.9
20260504204020 82 351 0.0 0.0 0.00 0.00 0.00 57 1011.1
20260504203518 81 9 0.0 0.0 0.00 0.00 0.00 59 1011.0
20260504203015 82 356 0.0 0.0 0.00 0.00 0.00 57 1011.0
20260504202510 82 359 0.0 0.0 0.00 0.00 0.00 58 1011.3
20260504202007 82 356 0.0 0.0 0.00 0.00 0.00 59 1011.2
20260504201504 81 21 0.0 0.0 0.00 0.00 0.00 60 1011.4
20260504201002 80 95 0.0 0.0 0.00 0.00 0.00 60 1011.7
20260504200458 80 146 0.0 0.0 0.00 0.00 0.00 60 1011.6
20260504195955 81 43 0.0 0.0 0.00 0.00 0.00 59 1011.8
20260504195450 81 317 0.0 0.0 0.00 0.00 0.00 58 1011.8
20260504194947 80 6 0.0 0.0 0.00 0.00 0.00 60 1012.0
20260504194443 82 339 0.0 0.0 0.00 0.00 0.00 57 1012.1
20260504193939 82 45 0.0 0.0 0.00 0.00 0.00 58 1012.0
20260504193437 81 133 0.0 0.0 0.00 0.00 0.00 59 1012.5
20260504192936 80 6 0.0 0.0 0.00 0.00 0.00 59 1012.2
20260504192432 80 5 0.0 0.0 0.00 0.00 0.00 59 1012.3
20260504191931 81 51 0.0 0.0 0.00 0.00 0.00 58 1012.5
20260504191430 81 87 0.0 0.0 0.00 0.00 0.00 56 1012.2
20260504190929 82 345 0.0 0.0 0.00 0.00 0.00 56 1012.5
20260504190425 82 345 0.0 0.0 0.00 0.00 0.00 56 1012.8
20260504185922 82 124 0.0 1.0 0.00 0.00 0.00 56 1012.6
20260504185420 82 152 0.0 0.0 0.00 0.00 0.00 57 1013.0
20260504184915 81 115 0.0 0.0 0.00 0.00 0.00 56 1012.9
20260504184411 81 141 0.0 1.0 0.00 0.00 0.00 56 1012.9
20260504183908 80 343 0.0 2.0 0.00 0.00 0.00 58 1012.8
20260504183405 79 339 0.0 0.0 0.00 0.00 0.00 59 1012.8
20260504182903 79 340 0.0 0.0 0.00 0.00 0.00 59 1012.9
20260504182359 79 356 0.0 0.0 0.00 0.00 0.00 60 1013.1
20260504181856 79 162 0.0 0.0 0.00 0.00 0.00 61 1013.1
20260504181354 80 344 0.0 0.0 0.00 0.00 0.00 60 1013.2
20260504180852 80 342 1.0 1.0 0.00 0.00 0.00 59 1013.3
20260504180350 80 309 1.0 2.0 0.00 0.00 0.00 58 1013.2
20260504175848 80 169 0.0 0.0 0.00 0.00 0.00 59 1013.5
20260504175345 79 332 0.0 0.0 0.00 0.00 0.00 58 1013.5
20260504174843 79 170 0.0 2.0 0.00 0.00 0.00 60 1013.4
20260504174340 79 342 0.0 1.0 0.00 0.00 0.00 59 1013.6
20260504173837 78 7 0.0 0.0 0.00 0.00 0.00 59 1013.6
20260504173334 77 1 0.0 0.0 0.00 0.00 0.00 59 1013.7
20260504172831 77 165 1.0 1.0 0.00 0.00 0.00 61 1013.8
20260504172327 77 327 0.0 0.0 0.00 0.00 0.00 60 1013.8
20260504171823 77 321 0.0 1.0 0.00 0.00 0.00 61 1013.8
20260504171321 77 328 0.0 0.0 0.00 0.00 0.00 62 1014.1
20260504170818 77 14 0.0 0.0 0.00 0.00 0.00 63 1014.0
20260504170315 77 349 0.0 0.0 0.00 0.00 0.00 64 1014.0
20260504160233 74 6 0.0 0.0 0.00 0.00 0.00 66 1014.9